Miramar MCAS, CA

3:08 PM PST on February 23, 2018 (GMT -0800)
Miramar Marine Corps Air Station-Mitscher

Weather History for KNKX - February, 2014

Change the Weather History Date:

Wednesday, February 19, 2014

  Actual Average Record
Temperature  
Mean Temperature 55 °F -  
Max Temperature 64 °F 62 °F 75 °F (2000)
Min Temperature 46 °F 44 °F 41 °F (2002)
Degree Days  
Heating Degree Days 10    
Growing Degree Days 5 (Base 50)    
Moisture  
Dew Point 48 °F    
Average Humidity 76    
Maximum Humidity 90    
Minimum Humidity 54    
Precipitation  
Precipitation 0.00 in - - ()
Sea Level Pressure  
Sea Level Pressure 29.96 in    
Wind  
Wind Speed 4 mph (NNW)    
Max Wind Speed 12 mph    
Max Gust Speed -    
Visibility 10 miles    
Events      
Averages and records for this station are not official NWS values.
T = Trace of Precipitation, MM = Missing Value Source: NWS Daily Summary

Daily Weather History Graph

Daily Weather History Graph

Search for Another Location

Airport or City:

Trip Planner

Search our weather history database for the weather conditions in past years. The results will help you decide how hot, cold, wet, or windy it might be!

Date:

Astronomy

Feb. 19, 2014 Rise Set
Actual Time 6:27 AM PST 5:37 PM PST
Civil Twilight 6:02 AM PST 6:02 PM PST
Nautical Twilight 5:33 AM PST 6:31 PM PST
Astronomical Twilight 5:05 AM PST 7:00 PM PST
Moon 10:17 PM PST (2/19) 8:52 AM PST (2/19)
Length of Visible Light 12h 00m
Length of Day
11h 09m
Waning Gibbous, 79% of the Moon is Illuminated
Feb 19
Waning Gibbous
Feb 22
Last Quarter
Mar 1
New
Mar 8
First Quarter
Mar 16
Full

Hourly Weather History & Observations

Time (PST) Temp. Dew Point Humidity Pressure Visibility Wind Dir Wind Speed Gust Speed Precip Events Conditions
12:55 AM 51.1 °F 48.0 °F 89% 29.98 in 10.0 mi SSW 3.5 mph - N/A   Overcast
1:55 AM 52.0 °F 48.0 °F 86% 29.96 in 10.0 mi ENE 4.6 mph - N/A   Overcast
2:55 AM 53.1 °F 48.0 °F 83% 29.96 in 10.0 mi Calm Calm - N/A   Mostly Cloudy
3:55 AM 54.0 °F 48.9 °F 83% 29.95 in 10.0 mi Calm Calm - N/A   Overcast
4:55 AM 55.0 °F 48.9 °F 80% 29.95 in 9.0 mi SE 3.5 mph - N/A   Overcast
5:55 AM 55.0 °F 48.9 °F 80% 29.98 in 9.0 mi NW 4.6 mph - N/A   Overcast
6:55 AM 55.0 °F 48.9 °F 80% 29.99 in 9.0 mi Calm Calm - N/A   Overcast
7:55 AM 55.0 °F 50.0 °F 83% 29.99 in 9.0 mi East 9.2 mph - N/A   Overcast
8:55 AM 55.0 °F 48.9 °F 80% 30.00 in 10.0 mi NNW 3.5 mph - N/A   Overcast
9:55 AM 57.9 °F 48.9 °F 72% 29.97 in 10.0 mi Variable 3.5 mph - N/A   Mostly Cloudy
10:20 AM 60.1 °F 48.9 °F 67% 29.98 in 10.0 mi Variable 3.5 mph - N/A   Mostly Cloudy
10:55 AM 61.0 °F 48.0 °F 62% 29.98 in 10.0 mi SE 3.5 mph - N/A   Mostly Cloudy
11:55 AM 64.0 °F 48.9 °F 58% 29.97 in 10.0 mi West 11.5 mph - N/A   Scattered Clouds
12:55 PM 63.0 °F 48.0 °F 58% 29.94 in 10.0 mi Variable 4.6 mph - N/A   Scattered Clouds
1:55 PM 64.0 °F 46.9 °F 54% 29.91 in 10.0 mi Variable 3.5 mph - N/A   Scattered Clouds
2:55 PM 63.0 °F 48.0 °F 58% 29.91 in 10.0 mi WNW 10.4 mph - N/A   Scattered Clouds
3:55 PM 61.0 °F 48.9 °F 64% 29.91 in 10.0 mi West 5.8 mph - N/A   Scattered Clouds
4:55 PM 59.0 °F 48.9 °F 69% 29.91 in 10.0 mi WNW 6.9 mph - N/A   Scattered Clouds
5:55 PM 55.9 °F 48.9 °F 77% 29.94 in 10.0 mi NW 3.5 mph - N/A   Scattered Clouds
6:55 PM 54.0 °F 48.0 °F 80% 29.94 in 10.0 mi WNW 4.6 mph - N/A   Scattered Clouds
7:55 PM 50.0 °F 46.0 °F 86% 29.94 in 10.0 mi Calm Calm - N/A   Scattered Clouds
8:55 PM 48.9 °F 46.0 °F 90% 29.96 in 9.0 mi Calm Calm - N/A   Scattered Clouds
9:55 PM 48.0 °F 44.1 °F 86% 29.96 in 9.0 mi ENE 5.8 mph - N/A   Scattered Clouds
10:55 PM 46.9 °F 44.1 °F 90% 29.96 in 8.0 mi ENE 4.6 mph - N/A   Scattered Clouds
11:55 PM 48.0 °F 44.1 °F 86% 29.96 in 8.0 mi NE 4.6 mph - N/A   Scattered Clouds